DW0000 Weather Reports


Display with metric or nautical units.
time (UTC)temp
F
wind
direction
speed
MPH
gust
MPH
rain 1hr
in
rain 24hr
in
rain mn
in
humidity
%
barometer
mb
20260506112508 59 97 6.0 8.0 0.00 0.00 0.00 98 1025.8
20260506112006 58 91 5.0 8.0 0.00 0.00 0.00 98 1025.9
20260506110006 59 90 3.0 5.0 0.00 0.00 0.00 97 1025.9
20260506105506 59 99 2.0 3.0 0.00 0.00 0.00 97 1025.9
20260506104006 59 84 2.0 5.0 0.00 0.00 0.00 96 1026.1
20260506103506 59 100 3.0 5.0 0.00 0.00 0.00 96 1026.1
20260506101507 60 42 1.0 5.0 0.00 0.00 0.00 96 1026.2
20260506101006 60 98 2.0 3.0 0.00 0.00 0.00 96 1026.1
20260506094507 59 85 3.0 5.0 0.00 0.00 0.00 96 1026.2
20260506094008 59 91 2.0 5.0 0.00 0.00 0.00 96 1026.1
20260506092006 59 94 4.0 7.0 0.00 0.00 0.00 96 1026.0
20260506091008 59 101 4.0 6.0 0.00 0.00 0.00 95 1026.0
20260506090506 60 91 5.0 7.0 0.00 0.00 0.00 95 1026.0
20260506090006 60 94 4.0 7.0 0.00 0.00 0.00 95 1026.1
20260506085506 60 89 5.0 8.0 0.00 0.00 0.00 95 1026.0
20260506084006 60 90 3.0 6.0 0.00 0.00 0.00 94 1026.1
20260506083008 60 88 5.0 7.0 0.00 0.00 0.00 94 1026.1
20260506082506 60 100 5.0 8.0 0.00 0.00 0.00 94 1026.0
20260506081506 60 86 4.0 8.0 0.00 0.00 0.00 93 1026.1
20260506081007 60 99 4.0 8.0 0.00 0.00 0.00 93 1026.2
20260506073507 61 81 3.0 6.0 0.00 0.00 0.00 92 1026.1
20260506073006 61 87 2.0 6.0 0.00 0.00 0.00 91 1026.1
20260506071006 61 66 4.0 7.0 0.00 0.00 0.00 90 1026.2
20260506070506 61 70 4.0 7.0 0.00 0.00 0.00 89 1026.1
20260506062008 61 60 2.0 8.0 0.00 0.00 0.00 87 1025.9
20260506061506 62 58 2.0 6.0 0.00 0.00 0.00 86 1026.0
20260506061007 62 41 3.0 7.0 0.00 0.00 0.00 86 1025.8
20260506051006 64 18 6.0 10.0 0.00 0.00 0.00 82 1026.0
20260506043007 67 39 7.0 16.0 0.00 0.00 0.00 79 1026.0
20260506042006 67 18 8.0 15.0 0.00 0.00 0.00 78 1026.0
20260506041506 67 15 10.0 15.0 0.00 0.00 0.00 78 1026.1
20260506041006 67 29 9.0 13.0 0.00 0.00 0.00 78 1026.0
20260506035007 68 348 9.0 13.0 0.00 0.00 0.00 77 1026.1
20260506034505 68 36 6.0 12.0 0.00 0.00 0.00 76 1026.1
20260506032007 69 43 8.0 14.0 0.00 0.00 0.00 76 1026.1
20260506031505 69 24 7.0 14.0 0.00 0.00 0.00 75 1026.1
20260506030505 69 12 5.0 14.0 0.00 0.00 0.00 75 1026.1
20260506030007 70 30 7.0 14.0 0.00 0.00 0.00 76 1026.2
20260506025505 70 50 5.0 12.0 0.00 0.00 0.00 75 1026.2
20260506024507 69 61 5.0 12.0 0.00 0.00 0.00 76 1026.4
20260506023007 69 28 5.0 13.0 0.00 0.00 0.00 75 1026.4
20260506021505 68 0 9.0 15.0 0.00 0.00 0.00 77 1026.2
20260506021007 68 47 8.0 13.0 0.00 0.00 0.00 76 1026.3
20260506020505 69 31 7.0 12.0 0.00 0.00 0.00 76 1026.4
20260506015507 70 39 4.0 13.0 0.00 0.00 0.00 75 1026.3
20260506015005 70 36 6.0 13.0 0.00 0.00 0.00 76 1026.4
20260506014505 70 44 9.0 14.0 0.00 0.00 0.00 75 1026.4
20260506014007 69 42 6.0 17.0 0.00 0.00 0.00 76 1026.3
20260506013006 69 27 6.0 15.0 0.00 0.00 0.00 77 1026.4
20260506011505 67 43 6.0 12.0 0.00 0.00 0.00 81 1026.6
20260506010005 67 12 7.0 10.0 0.00 0.00 0.00 80 1026.7
20260506005506 68 41 6.0 13.0 0.00 0.00 0.00 79 1026.7
20260506004505 67 21 8.0 14.0 0.00 0.00 0.00 80 1026.7
20260506003006 68 31 7.0 14.0 0.00 0.00 0.00 79 1027.0
20260506002005 68 43 6.0 12.0 0.00 0.00 0.00 77 1027.1
20260506001505 68 10 6.0 13.0 0.00 0.00 0.00 78 1027.1
20260506000005 69 35 6.0 13.0 0.00 0.00 0.00 79 1027.3
20260505235005 67 31 7.0 12.0 0.00 0.00 0.00 80 1027.5
20260505234506 67 45 6.0 13.0 0.00 0.00 0.00 81 1027.6
20260505234005 67 77 6.0 16.0 0.00 0.00 0.00 80 1027.6
20260505233505 67 113 5.0 9.0 0.00 0.00 0.00 80 1027.6
20260505233006 67 71 4.0 9.0 0.00 0.00 0.00 82 1027.8
20260505230005 65 20 3.0 9.0 0.00 0.00 0.00 87 1027.9
20260505225005 65 51 3.0 9.0 0.00 0.00 0.00 88 1028.0
20260505224507 64 50 5.0 10.0 0.00 0.00 0.00 88 1028.0
20260505224005 64 36 4.0 13.0 0.00 0.00 0.00 88 1028.0
20260505223505 64 43 3.0 13.0 0.00 0.00 0.00 89 1028.1
20260505223006 64 58 2.0 6.0 0.00 0.00 0.00 89 1028.1
20260505222506 64 68 3.0 10.0 0.00 0.00 0.00 89 1028.1
20260505220505 63 32 3.0 6.0 0.00 0.00 0.00 92 1028.3
20260505215505 63 71 3.0 7.0 0.00 0.00 0.00 93 1028.3
20260505215007 63 79 3.0 8.0 0.00 0.00 0.00 95 1028.3
20260505214505 63 67 4.0 7.0 0.00 0.00 0.00 96 1028.4
20260505212504 62 82 1.0 3.0 0.00 0.00 0.00 99 1028.3
20260505211005 61 58 1.0 3.0 0.00 0.00 0.00 99 1028.5
20260505210505 60 52 2.0 3.0 0.00 0.00 0.00 99 1028.5
20260505205005 60 80 2.0 5.0 0.00 0.00 0.00 99 1028.4
20260505204505 59 81 2.0 5.0 0.00 0.00 0.00 99 1028.5
20260505203006 58 86 2.0 5.0 0.00 0.00 0.00 99 1028.4
20260505201505 57 109 2.0 5.0 0.00 0.00 0.00 99 1028.3
20260505201005 57 101 2.0 5.0 0.00 0.00 0.00 99 1028.2
20260505200005 57 92 2.0 5.0 0.00 0.00 0.00 98 1028.0
20260505194504 56 80 3.0 6.0 0.00 0.00 0.00 98 1027.8
20260505194005 56 97 3.0 5.0 0.00 0.00 0.00 98 1027.8
20260505193504 56 87 3.0 5.0 0.00 0.00 0.00 98 1028.0
20260505192504 56 93 3.0 5.0 0.00 0.00 0.00 98 1027.8
20260505190505 56 85 2.0 5.0 0.00 0.00 0.00 97 1027.8
20260505190005 56 79 3.0 5.0 0.00 0.00 0.00 97 1027.6
20260505184504 56 116 3.0 3.0 0.00 0.00 0.00 96 1027.8
20260505183005 56 95 2.0 5.0 0.00 0.00 0.00 96 1027.9
20260505182504 57 76 3.0 5.0 0.00 0.00 0.00 96 1027.8
20260505182004 57 77 3.0 5.0 0.00 0.00 0.00 96 1027.9
20260505181507 57 77 3.0 7.0 0.00 0.00 0.00 96 1027.7
20260505174005 56 70 3.0 5.0 0.00 0.00 0.00 95 1027.5
20260505172504 56 93 2.0 5.0 0.00 0.00 0.00 95 1027.7
20260505172006 57 99 3.0 5.0 0.00 0.00 0.00 94 1027.7
20260505171505 57 94 3.0 5.0 0.00 0.00 0.00 95 1027.7
20260505170007 57 102 3.0 6.0 0.00 0.00 0.00 94 1027.7
20260505165506 57 108 3.0 6.0 0.00 0.00 0.00 94 1027.7
20260505164508 57 88 6.0 7.0 0.00 0.00 0.00 95 1027.9
20260505163009 56 96 5.0 6.0 0.00 0.00 0.00 94 1027.8
20260505162506 57 108 5.0 6.0 0.00 0.00 0.00 93 1027.8
20260505161008 57 95 3.0 7.0 0.00 0.00 0.00 93 1027.9
20260505150506 58 88 6.0 6.0 0.00 0.00 0.00 90 1028.1
20260505125008 57 334 2.0 2.0 0.00 0.00 0.00 93 1029.4
20260505124508 57 333 2.0 2.0 0.00 0.00 0.00 93 1029.5
20260505122506 56 319 2.0 3.0 0.00 0.00 0.00 93 1029.6
20260505122007 56 326 2.0 3.0 0.00 0.00 0.00 94 1029.6
20260505121006 57 311 1.0 2.0 0.00 0.00 0.00 94 1029.4
20260505120506 57 351 0.0 2.0 0.00 0.00 0.00 94 1029.5
20260505115006 56 123 2.0 2.0 0.00 0.00 0.00 94 1029.5